San Diego Brown, CA

4:57 PM PDT on May 25, 2017 (GMT -0700)
Brown Municipal

Weather History for KSDM - July, 2013

Change the Weather History Date:

Tuesday, July 30, 2013

  Actual Average Record
Temperature  
Mean Temperature 66 °F 70 °F  
Max Temperature 75 °F 79 °F 88 °F (1957)
Min Temperature 59 °F 62 °F 59 °F (2013)
Degree Days  
Heating Degree Days 0 0  
Month to date heating degree days 0  
Since 1 June heating degree days 31  
Since 1 July heating degree days 0  
Cooling Degree Days 1 5  
Month to date cooling degree days 124  
Year to date cooling degree days 209  
Since 1 June cooling degree days 167  
Growing Degree Days 16 (Base 50)    
Moisture  
Dew Point 58 °F    
Average Humidity 76    
Maximum Humidity 90    
Minimum Humidity 57    
Precipitation  
Precipitation 0.00 in 0.00 in 0.02 in (2001)
Month to date precipitation 0.09  
Year to date precipitation 8.48  
Sea Level Pressure  
Sea Level Pressure 30.08 in    
Wind  
Wind Speed 5 mph (West)    
Max Wind Speed 12 mph    
Max Gust Speed 22 mph    
Visibility 10 miles    
Events      
T = Trace of Precipitation, MM = Missing Value Source: NWS Daily Summary

Daily Weather History Graph

Daily Weather History Graph

Search for Another Location

Airport or City:

Trip Planner

Search our weather history database for the weather conditions in past years. The results will help you decide how hot, cold, wet, or windy it might be!

Date:

Astronomy

Jul. 30, 2013 Rise Set
Actual Time 6:01 AM PDT 7:47 PM PDT
Civil Twilight 5:34 AM PDT 8:14 PM PDT
Nautical Twilight 5:01 AM PDT 8:46 PM PDT
Astronomical Twilight 4:27 AM PDT 9:20 PM PDT
Moon 12:19 AM PDT (7/30) 2:12 PM PDT (7/30)
Length of Visible Light 14h 40m
Length of Day
13h 46m
Last Quarter, 40% of the Moon is Illuminated
Jul 30
Last Quarter
Aug 6
New
Aug 14
First Quarter
Aug 20
Full
Aug 28
Last Quarter

Hourly Weather History & Observations

Time (PDT) Temp. Dew Point Humidity Pressure Visibility Wind Dir Wind Speed Gust Speed Precip Events Conditions
12:53 AM 60.1 °F 57.0 °F 90% 30.04 in 10.0 mi North - - N/A   Clear
1:53 AM 60.1 °F 57.0 °F 90% 30.05 in 10.0 mi SW 11.5 mph 21.9 mph N/A   Clear
2:38 AM 59.0 °F 55.4 °F 88% 30.06 in 10.0 mi Calm Calm - N/A   Mostly Cloudy
2:53 AM 60.1 °F 57.0 °F 90% 30.06 in 10.0 mi Calm Calm - N/A   Overcast
3:53 AM 62.1 °F 57.9 °F 86% 30.06 in 10.0 mi Calm Calm - N/A   Overcast
4:53 AM 62.1 °F 57.9 °F 86% 30.07 in 10.0 mi Calm Calm - N/A   Overcast
5:53 AM 62.1 °F 57.9 °F 86% 30.08 in 10.0 mi Calm Calm - N/A   Overcast
6:53 AM 63.0 °F 57.9 °F 84% 30.09 in 10.0 mi Calm Calm - N/A   Overcast
7:53 AM 63.0 °F 57.9 °F 84% 30.10 in 10.0 mi Calm Calm - N/A   Overcast
8:53 AM 66.9 °F 59.0 °F 76% 30.10 in 10.0 mi Calm Calm - N/A   Scattered Clouds
9:53 AM 71.1 °F 57.9 °F 63% 30.10 in 10.0 mi NW 5.8 mph - N/A   Scattered Clouds
10:53 AM 73.0 °F 57.9 °F 59% 30.10 in 10.0 mi West 6.9 mph - N/A   Clear
11:53 AM 73.0 °F 57.9 °F 59% 30.09 in 10.0 mi WNW 8.1 mph - N/A   Clear
12:53 PM 73.0 °F 57.9 °F 59% 30.09 in 10.0 mi West 10.4 mph - N/A   Clear
1:53 PM 73.9 °F 57.9 °F 57% 30.08 in 10.0 mi WNW 8.1 mph 16.1 mph N/A   Clear
2:53 PM 73.9 °F 57.9 °F 57% 30.07 in 10.0 mi West 10.4 mph - N/A   Clear
3:53 PM 72.0 °F 57.9 °F 61% 30.06 in 10.0 mi West 8.1 mph - N/A   Clear
4:53 PM 70.0 °F 57.0 °F 63% 30.05 in 10.0 mi West 9.2 mph - N/A   Clear
5:53 PM 69.1 °F 57.0 °F 65% 30.05 in 10.0 mi West 6.9 mph - N/A   Clear
6:53 PM 66.9 °F 57.0 °F 70% 30.06 in 10.0 mi WNW 5.8 mph - N/A   Clear
7:38 PM 64.4 °F 57.2 °F 77% 30.08 in 10.0 mi West 8.1 mph - N/A   Mostly Cloudy
7:53 PM 63.0 °F 57.9 °F 84% 30.07 in 10.0 mi West 8.1 mph - N/A   Overcast
8:31 PM 62.6 °F 57.2 °F 82% 30.08 in 10.0 mi West 5.8 mph - N/A   Scattered Clouds
8:39 PM 62.6 °F 57.2 °F 82% 30.09 in 10.0 mi West 4.6 mph - N/A   Partly Cloudy
8:53 PM 63.0 °F 57.9 °F 84% 30.08 in 10.0 mi West 5.8 mph - N/A   Clear
9:53 PM 62.1 °F 57.0 °F 84% 30.09 in 10.0 mi Calm Calm - N/A   Clear
10:24 PM 62.6 °F 57.2 °F 82% 30.10 in 10.0 mi Calm Calm - N/A   Mostly Cloudy
10:53 PM 63.0 °F 57.9 °F 84% 30.09 in 10.0 mi Calm Calm - N/A   Overcast
11:53 PM 64.0 °F 57.9 °F 80% 30.09 in 10.0 mi Calm Calm - N/A   Overcast